Weather History for New River MCAS, NC

Change the Weather History Date:

Wednesday, October 30, 2013

  Actual Average Record
Temperature  
Mean Temperature 62 °F -  
Max Temperature 75 °F 69 °F 86 °F (1996)
Min Temperature 50 °F 46 °F 31 °F (2001)
Degree Days  
Heating Degree Days 4    
Growing Degree Days 12 (Base 50)    
Moisture  
Dew Point 54 °F    
Average Humidity 81    
Maximum Humidity 97    
Minimum Humidity 52    
Precipitation  
Precipitation 0.00 in - - ()
Sea Level Pressure  
Sea Level Pressure 30.27 in    
Wind  
Wind Speed 2 mph (ESE)    
Max Wind Speed 10 mph    
Max Gust Speed -    
Visibility 9 miles    
Events      
Averages and records for this station are not official NWS values.
T = Trace of Precipitation, MM = Missing Value Source: NWS Daily Summary

Daily Weather History Graph

Daily Weather History Graph

Search for Another Location

Airport:

Trip Planner

Search our weather history database for the weather conditions in past years. The results will help you decide how hot, cold, wet, or windy it might be!

Date:

Astronomy

Oct. 30, 2013 Rise Set
Actual Time 7:28 AM EDT 6:17 PM EDT
Civil Twilight 7:02 AM EDT 6:43 PM EDT
Nautical Twilight 6:32 AM EDT 7:13 PM EDT
Astronomical Twilight 6:03 AM EDT 7:42 PM EDT
Moon 3:25 AM EDT (10/30) 3:53 PM EDT (10/30)
Length of Visible Light 11h 40m
Length of Day
10h 48m
Waning Crescent, 17% of the Moon is Illuminated
Oct 30
Waning Crescent
Nov 3
New
Nov 10
First Quarter
Nov 17
Full
Nov 25
Last Quarter

Hourly Weather History & Observations

Time (EDT) Temp. Dew Point Humidity Pressure Visibility Wind Dir Wind Speed Gust Speed Precip Events Conditions
12:56 AM 54.0 °F 51.1 °F 90% 30.31 in 10.0 mi Calm Calm - N/A   Clear
1:56 AM 57.0 °F 53.1 °F 87% 30.30 in 10.0 mi ENE 4.6 mph - N/A   Clear
2:56 AM 55.9 °F 53.1 °F 90% 30.30 in 10.0 mi North 3.5 mph - N/A   Clear
3:56 AM 54.0 °F 52.0 °F 93% 30.28 in 8.0 mi Calm Calm - N/A   Clear
4:56 AM 52.0 °F 50.0 °F 93% 30.28 in 6.0 mi Calm Calm - N/A   Clear
5:56 AM 50.0 °F 48.9 °F 96% 30.29 in 7.0 mi Calm Calm - N/A   Clear
6:56 AM 50.0 °F 48.9 °F 96% 30.30 in 6.0 mi Calm Calm - N/A   Clear
7:56 AM 52.0 °F 50.0 °F 93% 30.30 in 5.0 mi Calm Calm - N/A   Clear
8:56 AM 57.0 °F 54.0 °F 89% 30.32 in 5.0 mi Calm Calm - N/A   Scattered Clouds
9:56 AM 60.1 °F 55.9 °F 86% 30.34 in 8.0 mi Calm Calm - N/A   Clear
10:56 AM 68.0 °F 55.9 °F 65% 30.33 in 10.0 mi Calm Calm - N/A   Clear
11:56 AM 70.0 °F 55.0 °F 59% 30.31 in 10.0 mi ESE 4.6 mph - N/A   Clear
12:56 PM - - N/A% 30.28 in 10.0 mi East 6.9 mph - N/A   Partly Cloudy
1:56 PM 72.0 °F 55.9 °F 57% 30.25 in 10.0 mi East 8.1 mph - N/A   Partly Cloudy
2:56 PM 73.9 °F 55.0 °F 52% 30.22 in 10.0 mi East 9.2 mph - N/A   Mostly Cloudy
3:56 PM 73.0 °F 55.9 °F 55% 30.22 in 10.0 mi SSE 9.2 mph - N/A   Clear
4:56 PM 71.1 °F 55.0 °F 57% 30.21 in 10.0 mi SSE 10.4 mph - N/A   Clear
5:56 PM 68.0 °F 57.0 °F 68% 30.22 in 10.0 mi SSE 4.6 mph - N/A   Clear
6:56 PM 64.0 °F 57.9 °F 80% 30.23 in 10.0 mi SSE 3.5 mph - N/A   Clear
7:56 PM 61.0 °F 57.9 °F 90% 30.24 in 10.0 mi Calm Calm - N/A   Clear
8:56 PM 60.1 °F 57.9 °F 93% 30.25 in 10.0 mi SSW 3.5 mph - N/A   Clear
9:56 PM 59.0 °F 57.0 °F 93% 30.25 in 9.0 mi Calm Calm - N/A   Clear
10:56 PM 57.9 °F 57.0 °F 97% 30.25 in 8.0 mi Calm Calm - N/A   Clear
11:56 PM 57.9 °F 55.9 °F 93% 30.24 in 9.0 mi Calm Calm - N/A   Clear